Location: Andiroba
(19.8650°S, 43.9258°W)
Time: 23:05:04
(UTC+00:00)

BREEZE-M TANK - Visible Passes

Search period start: 13 September 2024 00:00
Search period end: 23 September 2024 00:00
Orbit: 596 x 24684 km, 45.3° (Epoch: 12 September)

Date Brightness Start Highest point End Pass type
(mag) Time Alt. Az. Time Alt. Az. Time Alt. Az.
13 Sep 5.3 23:18:06 10° SW 00:07:13 74° WNW 00:07:13 74° WNW visible
14 Sep 9.7 08:48:16 10° ENE 11:54:04 31° ESE 13:40:42 10° SE visible
14 Sep 6.1 15:58:43 10° WNW 21:40:08 55° SSE 21:52:32 19° E visible
17 Sep 5.8 00:07:43 10° SW 00:38:15 45° WNW 00:38:15 45° WNW visible
17 Sep 5.6 16:52:12 10° W 22:16:09 65° SSE 22:23:34 31° E visible
18 Sep 10.7 09:49:26 10° ESE 10:19:06 11° ESE 10:45:17 10° ESE visible
20 Sep 6.4 00:52:14 10° WSW 01:09:16 24° WNW 01:09:16 24° WNW visible
20 Sep 5.2 20:56:15 10° SW 22:50:12 83° SE 22:54:34 46° NE visible
21 Sep 10.3 08:34:19 10° E 10:40:40 20° ESE 12:03:26 10° SE visible
